Increase in Institutional Shareholding

See all stocks in where Institutions increased their stake by buying more stocks. Institutions category consists of all non-individual bodies such as Mutual funds, Government of India, LIC, UTI, FII, FPI and Financial Institutions etc. Institutions increasing their shareholding in a stock is considered positive for the stock.

Shareholding
Stock Name Quality Score Technical Score Stock Classification Text Default Exchange Institutional holding change QoQ % Institutional holding current Qtr % Shareholding Date yyyymmdd Previous Quarter Date
EPL Ltd. 60 60 Expensive Performer NSE 22.27 29.53 2020-09-30 NA
Indrayani Biotech Ltd. NA 58 NA BSE 22.04 22.04 2020-09-30 NA
Bandhan Bank Ltd. 42 59 Expensive Performer NSE 15.58 38.06 2020-09-30 NA
Amber Enterprises India Ltd. 72 75 Expensive Star NSE 15.02 34.86 2020-09-30 NA
Phoenix Mills Ltd. 53 44 Expensive Performer NSE 13.04 50.19 2020-09-30 NA
Nxtdigital Ltd. 31 58 Momentum Trap NSE 11.49 18.01 2020-09-30 NA
GMM Pfaudler Ltd. 63 47 Expensive Performer NSE 11.32 14.3 2020-09-30 NA
Hindustan Aeronautics Ltd. 63 44 Mid-range Performer NSE 11.12 19.81 2020-09-30 NA
Suzlon Energy Ltd. NA 47 NA NSE 10.65 19.34 2020-06-30 NA
Ruchi Infrastructure Ltd. 46 56 Expensive Performer NSE 10.64 10.68 2020-09-30 NA
Bharat Dynamics Ltd. 65 53 Mid-range Performer NSE 10.42 17.95 2020-09-30 NA
Tuticorin Alkali Chemicals & Fertilizers Ltd. 21 47 Momentum Trap BSE 9.27 9.27 2020-09-30 NA
JM Financial Ltd. 69 36 Mid-range Performer NSE 8.76 33.86 2020-06-30 NA
IndiaMART InterMESH Ltd. 72 68 Expensive Star NSE 8.47 27.4 2020-09-30 NA
Jagatjit Industries Ltd. 31 48 Momentum Trap BSE 8.19 8.21 2020-09-30 NA
Anik Industries Ltd. NA 54 NA NSE 5.92 6.03 2020-09-30 NA
MindTree Ltd. 56 67 Expensive Star NSE 5.71 23.98 2020-09-30 NA
ACC Ltd. 74 64 Expensive Star NSE 5.68 32.35 2020-09-30 NA
Pricol Ltd. 35 64 Expensive Rocket NSE 3.93 10.37 2020-09-30 NA
IDFC First Bank Ltd. 46 64 Expensive Rocket NSE 3.76 27.17 2020-06-30 NA
Majesco Ltd. 65 69 Strong Performer NSE 3.59 27.15 2020-09-30 NA
Max Financial Services Ltd. 49 52 Expensive Performer NSE 3.57 62.78 2020-09-30 NA
Vaksons Automobiles Ltd. NA 69 NA BSE 3.11 4.02 2020-09-30 NA
Future Enterprises Ltd. 28 18 Weak Stock NSE 3.1 6.93 2020-09-30 NA
Zydus Wellness Ltd. 71 62 Expensive Star NSE 3.01 27.46 2020-09-30 NA
Andhra Paper Ltd. 51 32 Falling Comet NSE 2.92 11.5 2020-09-30 NA
Aavas Financiers Ltd. 38 56 Expensive Performer NSE 2.9 40.37 2020-09-30 NA
Axis Bank Ltd. 55 54 Expensive Performer NSE 2.79 73.17 2020-09-30 NA
Central Bank of India 35 27 Slowing Down Stock NSE 2.67 7.34 2020-09-30 NA
Au Small Finance Bank Ltd. 67 60 Expensive Star NSE 2.66 46.15 2020-09-30 NA
Ceat Ltd. 55 65 Turnaround Potential NSE 2.62 39.86 2020-09-30 NA
Advanced Enzyme Technologies Ltd. 69 70 Expensive Star NSE 2.61 22.33 2020-09-30 NA
Stylam Industries Ltd. 74 69 Expensive Star BSE 2.58 9.24 2020-09-30 NA
Eros International Media Ltd. 30 55 Await Turnaround NSE 2.57 2.99 2020-06-30 NA
Metropolis Healthcare Ltd. 44 61 Expensive Rocket NSE 2.54 42.13 2020-09-30 NA
Ashok Leyland Ltd. 28 61 Momentum Trap NSE 2.52 32.24 2020-09-30 NA
Unity Infraprojects Ltd. NA 67 NA NSE 2.48 18.04 2019-12-31 NA
Bharti Airtel Ltd. 24 40 Momentum Trap NSE 2.42 38.53 2020-06-30 NA
Hubtown Ltd. 39 44 Mid-range Performer NSE 2.42 6.24 2020-09-30 NA
Swaraj Engines Ltd. 63 60 Expensive Performer NSE 2.42 14.15 2020-09-30 NA
Info Edge (India) Ltd. 46 61 Expensive Rocket NSE 2.41 51.98 2020-09-30 NA
CARE Ratings Ltd. 33 28 Weak Stock NSE 2.4 55.26 2020-09-30 NA
JK Lakshmi Cement Ltd. 78 55 Mid-range Performer NSE 2.29 33.49 2020-09-30 NA
IndusInd Bank Ltd. 56 60 Mid-range Performer NSE 2.26 69.05 2020-09-30 NA
Polyplex Corporation Ltd. 70 71 Strong Performer NSE 2.24 13.13 2020-09-30 NA
Laurus Labs Ltd. 85 70 Expensive Star NSE 2.22 27.08 2020-09-30 NA
LIC Housing Finance Ltd. 44 55 Mid-range Performer NSE 2.21 47.09 2020-09-30 NA
Hindustan Unilever Ltd. 67 54 Expensive Performer NSE 2.2 25.36 2020-09-30 NA
Karda Constructions Ltd. 37 69 Expensive Rocket NSE 2.19 2.47 2020-09-30 NA
Inox Leisure Ltd. 55 38 Expensive Performer NSE 2.16 32.03 2020-09-30 NA
Sugal & Damani Share Brokers Ltd. NA 48 NA BSE 2.13 2.13 2020-06-30 NA
Divi's Laboratories Ltd. 56 60 Expensive Performer NSE 2.12 37.09 2020-09-30 NA
Alembic Pharmaceuticals Ltd. 65 68 Expensive Star NSE 2.08 16.48 2020-09-30 NA
Sheela Foam Ltd. 60 35 Expensive Performer NSE 2.04 24.98 2020-09-30 NA
LKP Securities Ltd. NA 50 NA BSE 2.03 4.97 2020-09-30 NA
Mahindra & Mahindra Ltd. 17 53 Momentum Trap NSE 2.01 64.18 2020-06-30 NA
Patel Engineering Ltd. 46 29 Slowing Down Stock NSE 2.01 20.21 2020-09-30 NA
Intellect Design Arena Ltd. 55 67 Expensive Rocket NSE 2.01 28.17 2020-09-30 NA
Subros Ltd. 63 62 Expensive Star NSE 1.89 10.73 2020-09-30 NA
Transport Corporation of India Ltd. 56 57 Mid-range Performer NSE 1.87 13.79 2020-09-30 NA
Matrimony.com Ltd. 53 67 Expensive Rocket NSE 1.86 45.03 2020-06-30 NA
Tanla Solutions Ltd. 47 70 Expensive Rocket NSE 1.85 16.43 2020-09-30 NA
Dr. Lal Pathlabs Ltd. 53 70 Expensive Rocket NSE 1.81 32.04 2020-09-30 NA
Tata Elxsi Ltd. 76 73 Expensive Star NSE 1.78 16.37 2020-09-30 NA
Minda Industries Ltd. 49 48 Expensive Performer NSE 1.77 19.5 2020-09-30 NA
Orient Electric Ltd. 71 55 Expensive Performer NSE 1.77 28.08 2020-09-30 NA
V Mart Retail Ltd. 51 49 Expensive Performer NSE 1.76 40.35 2020-06-30 NA
Hero MotoCorp Ltd. 63 65 Expensive Star NSE 1.72 56.15 2020-09-30 NA
Edelweiss Financial Services Ltd. 31 50 Await Turnaround NSE 1.65 36.07 2020-09-30 NA
SBI Cards and Payment Services Ltd. NA 51 NA NSE 1.64 9.15 2020-09-30 NA
Piccadily Agro Industries Ltd. 67 52 Strong Performer, Under Radar BSE 1.62 1.62 2020-09-30 NA
Indiabulls Housing Finance Ltd. 55 39 Mid-range Performer NSE 1.61 51.08 2020-06-30 NA
Voltas Ltd. 40 68 Expensive Rocket NSE 1.61 51.66 2020-09-30 NA
S H Kelkar & Company Ltd. 67 55 Mid-range Performer NSE 1.6 13.38 2020-09-30 NA
Kalyani Steels Ltd. 85 58 Mid-range Performer NSE 1.58 7.5 2020-09-30 NA
Quess Corp Ltd. 46 63 Expensive Rocket NSE 1.56 31.25 2020-09-30 NA
Zee Media Corporation Ltd. 39 40 Mid-range Performer NSE 1.54 12.54 2020-09-30 NA
Honda India Power Products Ltd. 53 44 Expensive Performer NSE 1.53 12.43 2020-09-30 NA
Sequent Scientific Ltd. 85 68 Expensive Star NSE 1.49 13.11 2020-09-30 NA
Aurobindo Pharma Ltd. 92 47 Mid-range Performer NSE 1.48 36.67 2020-09-30 NA
NOCIL Ltd. 42 66 Expensive Rocket NSE 1.45 7.19 2020-09-30 NA
Indo Count Industries Ltd. 85 78 Expensive Star NSE 1.34 8.68 2020-09-30 NA
Glenmark Pharmaceuticals Ltd. 60 61 Strong Performer, Getting Expensive NSE 1.32 30.25 2020-09-30 NA
IIFL Wealth Management Ltd. 37 33 Expensive Underperformer NSE 1.24 22.72 2020-09-30 NA
NIIT Ltd. 72 62 Strong Performer, Getting Expensive NSE 1.22 34.92 2020-06-30 NA
Pritika Auto Industries Ltd. 55 55 Expensive Performer BSE 1.21 9.77 2020-09-30 NA
Kajaria Ceramics Ltd. 63 68 Expensive Star NSE 1.19 40.45 2020-09-30 NA
Persistent Systems Ltd. 35 68 Expensive Rocket NSE 1.19 47.6 2020-09-30 NA
Sundaram Finance Ltd. 46 45 Expensive Performer NSE 1.16 22.06 2020-06-30 NA
Cyient Ltd. 56 71 Strong Performer, Getting Expensive NSE 1.15 57.85 2020-09-30 NA
Bajaj Auto Ltd. 81 56 Expensive Performer NSE 1.14 23.96 2020-09-30 NA
Bharat Electronics Ltd. 55 47 Mid-range Performer NSE 1.13 41.21 2020-09-30 NA
DCB Bank Ltd. 44 40 Mid-range Performer NSE 1.12 52.12 2020-09-30 NA
McNally Bharat Engineering Company Ltd. 21 50 Await Turnaround NSE 1.12 1.18 2020-09-30 NA
Page Industries Ltd. 56 52 Expensive Performer NSE 1.09 40.71 2020-09-30 NA
Skipper Ltd. 67 70 Strong Performer NSE 1.09 10.57 2020-09-30 NA
MRF Ltd. 81 49 Expensive Performer NSE 1.08 25.63 2020-09-30 NA
EID Parry (India) Ltd. 81 53 Strong Performer, Under Radar NSE 1.07 9.93 2020-09-30 NA
Escorts Ltd. 79 56 Expensive Performer NSE 1.07 30.32 2020-06-30 NA
Alkem Laboratories Ltd. 69 50 Expensive Performer NSE 1.05 16.81 2020-09-30 NA
Marksans Pharma Ltd. 95 68 Strong Performer, Getting Expensive NSE 1.03 4.98 2020-09-30 NA
Sagar Productions Ltd. NA 36 NA BSE 1.03 1.24 2020-09-30 NA
GOCL Corporation Ltd. 37 37 Mid-range Performer NSE 1.02 4.71 2020-09-30 NA
CCL Products India Ltd. 69 48 Expensive Performer NSE 1.01 28.3 2020-09-30 NA
Kaycee Industries Ltd. NA 40 NA BSE 0.99 1.25 2020-09-30 NA
Adani Green Energy Ltd. 33 70 Momentum Trap NSE 0.99 22.7 2020-09-30 NA
Cosmo Films Ltd. 94 70 Strong Performer NSE 0.98 4.69 2020-09-30 NA
JK Tyre & Industries Ltd. 51 46 Mid-range Performer NSE 0.98 5.1 2020-09-30 NA
Welspun Enterprises Ltd. 37 67 Turnaround Potential NSE 0.98 8.42 2020-06-30 NA
Trent Ltd. 55 58 Expensive Performer NSE 0.97 37.77 2020-09-30 NA
Suven Pharmaceuticals Ltd. NA 40 NA NSE 0.97 9.14 2020-09-30 NA
Century Plyboards (India) Ltd. 83 59 Expensive Performer NSE 0.96 16.44 2020-09-30 NA
Elgi Equipments Ltd. 38 55 Expensive Performer NSE 0.95 32.28 2020-09-30 NA
Exide Industries Ltd. 62 44 Mid-range Performer NSE 0.92 32.87 2020-09-30 NA
Nirlon Ltd. 67 38 Expensive Performer BSE 0.86 13.37 2020-06-30 NA
Great Eastern Shipping Company Ltd. 95 49 Strong Performer, Under Radar NSE 0.85 44.21 2020-09-30 NA
Ramsarup Industries Ltd. NA 65 NA NSE 0.84 5.18 2020-06-30 NA
Sintex Industries Ltd. 39 75 Turnaround Potential NSE 0.84 1.21 2020-09-30 NA
Apollo Hospitals Enterprise Ltd. 63 63 Expensive Star NSE 0.83 62.75 2020-09-30 NA
JTEKT India Ltd. 72 50 Expensive Performer NSE 0.83 6.89 2020-09-30 NA
Sunteck Realty Ltd. 19 67 Momentum Trap NSE 0.83 27.55 2020-09-30 NA
Astral Poly Technik Ltd. 76 59 Expensive Performer NSE 0.79 29.25 2020-09-30 NA
Patel Integrated Logistics Ltd. NA 46 NA NSE 0.79 0.79 2020-09-30 NA
Rain Industries Ltd. 76 49 Strong Performer, Under Radar NSE 0.79 15.55 2020-09-30 NA
The Anup Engineering Ltd. 46 68 Expensive Rocket NSE 0.78 18.43 2020-09-30 NA
Cholamandalam Investment & Finance Company Ltd. 31 60 Momentum Trap NSE 0.76 40.45 2020-09-30 NA
Westlife Development Ltd. 35 49 Expensive Performer NSE 0.76 29.42 2020-09-30 NA
PAE Ltd. NA 29 NA NSE 0.75 1.61 2020-06-30 NA
Vikas Ecotech Ltd. 53 58 Expensive Performer NSE 0.75 9.02 2020-06-30 NA
Tube Investments of India Ltd. 63 52 Expensive Performer NSE 0.75 38.76 2020-06-30 NA
Crompton Greaves Consumer Electricals Ltd. 56 66 Expensive Star NSE 0.74 56.36 2020-09-30 NA
ISMT Ltd. 21 61 Momentum Trap NSE 0.72 2.11 2020-09-30 NA
Ipca Laboratories Ltd. 78 62 Expensive Star NSE 0.71 41.32 2020-09-30 NA
Sintex Plastics Technology Ltd. 40 60 Mid-range Performer NSE 0.7 1.19 2020-09-30 NA
MOIL Ltd. 46 42 Expensive Performer NSE 0.69 19.37 2020-09-30 NA
Responsive Industries Ltd. 65 71 Expensive Star NSE 0.69 8.84 2020-09-30 NA
Thyrocare Technologies Ltd. 58 76 Expensive Star NSE 0.69 28.74 2020-09-30 NA
Bajaj Finance Ltd. 35 48 Expensive Performer NSE 0.66 32.02 2020-09-30 NA
FIEM Industries Ltd. 76 56 Mid-range Performer NSE 0.66 9.94 2020-09-30 NA
Titan Company Ltd. 35 58 Expensive Performer NSE 0.66 29.38 2020-09-30 NA
Arman Financial Services Ltd. 51 60 Expensive Performer NSE 0.66 1.76 2020-09-30 NA
ICICI Bank Ltd. 65 57 Mid-range Performer NSE 0.65 89.79 2020-09-30 NA
PTC India Financial Services Ltd. 71 63 Strong Performer NSE 0.65 4.31 2020-09-30 NA
Sonata Software Ltd. 72 70 Expensive Star NSE 0.65 24.03 2020-09-30 NA
Procter & Gamble Health Ltd. 17 59 Momentum Trap NSE 0.64 15.65 2020-06-30 NA
Navin Fluorine International Ltd. 63 60 Expensive Star NSE 0.63 38.28 2020-06-30 NA
Motherson Sumi Systems Ltd. 55 49 Expensive Performer NSE 0.62 29.6 2020-09-30 NA
Trescon Ltd. NA 47 NA BSE 0.62 2.3 2020-09-30 NA
Astec Lifesciences Ltd. 76 58 Expensive Performer NSE 0.61 1.45 2020-09-30 NA
VIP Industries Ltd. 53 41 Expensive Performer NSE 0.61 18.12 2020-09-30 NA
Aegis Logistics Ltd. 62 51 Expensive Performer NSE 0.6 16.17 2020-09-30 NA
AI Champdany Industries Ltd. NA 39 NA BSE 0.6 9.29 2020-09-30 NA
Camlin Fine Sciences Ltd. 74 67 Expensive Star NSE 0.6 20.72 2020-09-30 NA
Allcargo Logistics Ltd. 46 56 Mid-range Performer NSE 0.59 17.31 2020-09-30 NA
KPIT Technologies Ltd. 71 66 Strong Performer, Getting Expensive NSE 0.59 36.15 2020-09-30 NA
Larsen & Toubro Infotech Ltd. 53 76 Expensive Rocket NSE 0.58 17.61 2020-09-30 NA
Eris Lifesciences Ltd. 72 45 Expensive Performer NSE 0.58 22.03 2020-09-30 NA
Blue Star Ltd. 49 56 Expensive Performer NSE 0.57 32.32 2020-09-30 NA
Amara Raja Batteries Ltd. 76 50 Expensive Performer NSE 0.56 33.32 2020-09-30 NA
Radico Khaitan Ltd. 69 68 Expensive Star NSE 0.56 34.64 2020-09-30 NA
NACL Industries Ltd. 56 51 Mid-range Performer NSE 0.56 2.2 2020-09-30 NA
Ramco Systems Ltd. 56 73 Expensive Star NSE 0.55 9.63 2020-09-30 NA
Dilip Buildcon Ltd. 51 48 Mid-range Performer NSE 0.54 16 2020-09-30 NA
Steel Strips Wheels Ltd. 51 57 Expensive Performer NSE 0.52 1.5 2020-09-30 NA
Poly Medicure Ltd. 67 73 Expensive Star NSE 0.51 3.11 2020-09-30 NA
Emami Ltd. 83 72 Expensive Star NSE 0.5 37.56 2020-09-30 NA
GAIL (India) Ltd. 51 42 Mid-range Performer NSE 0.5 43.47 2020-09-30 NA
Harrisons Malayalam Ltd. 86 49 Mid-range Performer NSE 0.5 0.84 2020-06-30 NA
JK Cement Ltd. 78 68 Expensive Star NSE 0.5 37.25 2020-09-30 NA
Lumax Auto Technologies Ltd. 55 67 Turnaround Potential NSE 0.5 23.74 2020-09-30 NA
KJMC Corporate Advisors (India) Ltd. NA 24 NA BSE 0.5 2.17 2020-09-30 NA
Havells India Ltd. 47 67 Expensive Rocket NSE 0.49 32.31 2020-09-30 NA
HDFC Bank Ltd. 30 66 Momentum Trap NSE 0.49 59.15 2020-06-30 NA
Reliance Industries Ltd. 60 62 Expensive Star NSE 0.49 38.55 2020-06-30 NA
TTK Prestige Ltd. 63 50 Expensive Performer NSE 0.48 21.18 2020-09-30 NA
Bhagiradha Chemicals & Industries Ltd. 35 67 Expensive Rocket BSE 0.48 2.89 2020-09-30 NA
Container Corporation of India Ltd. 72 42 Expensive Performer NSE 0.47 41.02 2020-06-30 NA
Multi Commodity Exchange of India Ltd. 74 72 Expensive Star NSE 0.47 77.98 2020-09-30 NA
Xchanging Solutions Ltd. 74 70 Expensive Star NSE 0.47 5.7 2020-09-30 NA
Shanti Educational Initiatives Ltd. NA 38 NA BSE 0.46 9.51 2020-09-30 NA
Sri Havisha Hospitality and Infrastructure Ltd. NA 43 NA NSE 0.46 14.82 2020-09-30 NA
MphasiS Ltd. 53 66 Expensive Rocket NSE 0.44 38.31 2020-09-30 NA
Mahindra Lifespace Developers Ltd. 24 48 Momentum Trap NSE 0.43 26.91 2020-06-30 NA
State Bank of India 63 54 Strong Performer, Under Radar NSE 0.43 33.24 2020-09-30 NA
Central Depository Services (India) Ltd. 17 69 Momentum Trap NSE 0.43 44.15 2020-06-30 NA
Thirumalai Chemicals Ltd. 55 61 Expensive Rocket NSE 0.42 0.59 2020-09-30 NA
Indian Railway Catering & Tourism Corporation Ltd. 63 46 Expensive Performer NSE 0.42 2.54 2020-09-30 NA
Colgate-Palmolive (India) Ltd. 83 65 Expensive Star NSE 0.41 26.77 2020-06-30 NA
Relaxo Footwears Ltd. 76 58 Expensive Performer NSE 0.4 10.35 2020-09-30 NA
Seshasayee Paper & Boards Ltd. 56 40 Strong Performer, Under Radar NSE 0.4 25.34 2020-09-30 NA
Kirloskar Ferrous Industries Ltd. 46 63 Turnaround Potential NSE 0.4 14.08 2020-09-30 NA
L&T Technology Services Ltd. 42 68 Expensive Rocket NSE 0.4 13.79 2020-09-30 NA
CSB Bank Ltd. 47 65 Expensive Rocket NSE 0.4 11.11 2020-09-30 NA
3M India Ltd. 55 42 Expensive Performer NSE 0.39 10.68 2020-09-30 NA
Firstsource Solutions Ltd. 55 68 Turnaround Potential NSE 0.39 21.13 2020-09-30 NA
India Cements Ltd. 60 64 Expensive Star NSE 0.39 21.64 2020-09-30 NA
Sundram Fasteners Ltd. 56 56 Expensive Performer NSE 0.39 27.43 2020-09-30 NA
Narayana Hrudayalaya Ltd. 65 56 Expensive Performer NSE 0.39 29.63 2020-09-30 NA
Infosys Ltd. 63 73 Expensive Star NSE 0.38 56.27 2020-09-30 NA
Indag Rubber Ltd. 78 51 Mid-range Performer BSE 0.38 2.86 2020-09-30 NA